| time (UTC) | temp F | wind direction | speed MPH | gust MPH | rain 1hr in | rain 24hr in | rain mn in | humidity % | barometer mb |
| 20260505204517 | 54 | 0.0 | 0.0 | 0.00 | 0.25 | 0.25 | 99 | 1008.0 | |
| 20260505204022 | 54 | 0.0 | 0.0 | 0.00 | 0.25 | 0.25 | 99 | 1008.0 | |
| 20260505203527 | 54 | 0.0 | 0.0 | 0.00 | 0.25 | 0.25 | 99 | 1008.0 | |
| 20260505203020 | 54 | 0.0 | 0.0 | 0.00 | 0.25 | 0.25 | 99 | 1008.0 | |
| 20260505202524 | 54 | 0.0 | 0.0 | 0.00 | 0.25 | 0.25 | 99 | 1008.0 | |
| 20260505202017 | 54 | 0.0 | 0.0 | 0.00 | 0.25 | 0.25 | 99 | 1008.0 | |
| 20260505201522 | 54 | 0.0 | 0.0 | 0.00 | 0.25 | 0.25 | 99 | 1008.0 | |
| 20260505201027 | 55 | 0.0 | 0.0 | 0.00 | 0.25 | 0.25 | 99 | 1008.0 | |
| 20260505200519 | 55 | 0.0 | 0.0 | 0.00 | 0.25 | 0.25 | 99 | 1008.0 | |
| 20260505200024 | 55 | 0.0 | 0.0 | 0.00 | 0.25 | 0.25 | 99 | 1008.0 | |
| 20260505195516 | 55 | 326 | 0.0 | 1.0 | 0.00 | 0.25 | 0.25 | 99 | 1008.0 |
| 20260505195021 | 55 | 0.0 | 0.0 | 0.00 | 0.25 | 0.25 | 99 | 1008.0 | |
| 20260505194555 | 55 | 0.0 | 0.0 | 0.00 | 0.25 | 0.25 | 99 | 1008.0 | |
| 20260505194018 | 55 | 0.0 | 0.0 | 0.00 | 0.25 | 0.25 | 99 | 1008.0 | |
| 20260505193523 | 55 | 0.0 | 0.0 | 0.01 | 0.25 | 0.25 | 99 | 1008.0 | |
| 20260505193015 | 55 | 0.0 | 0.0 | 0.01 | 0.25 | 0.25 | 99 | 1008.0 | |
| 20260505192520 | 56 | 0.0 | 0.0 | 0.03 | 0.25 | 0.25 | 99 | 1008.0 | |
| 20260505192025 | 56 | 0.0 | 0.0 | 0.05 | 0.25 | 0.25 | 99 | 1008.0 | |
| 20260505191518 | 56 | 0.0 | 0.0 | 0.05 | 0.25 | 0.25 | 99 | 1008.0 | |
| 20260505191145 | 56 | 0.0 | 0.0 | 0.05 | 0.25 | 0.25 | 99 | 1008.0 | |
| 20260505190516 | 56 | 0.0 | 0.0 | 0.05 | 0.25 | 0.25 | 99 | 1008.0 | |
| 20260505190218 | 56 | 0.0 | 0.0 | 0.05 | 0.25 | 0.25 | 99 | 1008.0 | |
| 20260505185526 | 57 | 0.0 | 0.0 | 0.05 | 0.25 | 0.25 | 99 | 1008.0 | |
| 20260505185018 | 57 | 0.0 | 0.0 | 0.06 | 0.25 | 0.25 | 99 | 1008.0 | |
| 20260505184523 | 57 | 302 | 0.0 | 2.0 | 0.06 | 0.25 | 0.25 | 99 | 1008.0 |
| 20260505184016 | 57 | 0.0 | 0.0 | 0.06 | 0.25 | 0.25 | 99 | 1008.0 | |
| 20260505183520 | 57 | 0.0 | 0.0 | 0.05 | 0.24 | 0.24 | 99 | 1008.0 | |
| 20260505183025 | 57 | 0.0 | 0.0 | 0.05 | 0.24 | 0.24 | 99 | 1008.0 | |
| 20260505182518 | 57 | 0.0 | 0.0 | 0.03 | 0.22 | 0.22 | 99 | 1008.0 | |
| 20260505182053 | 57 | 0.0 | 0.0 | 0.01 | 0.20 | 0.20 | 99 | 1008.0 | |
| 20260505181515 | 57 | 0.0 | 0.0 | 0.02 | 0.20 | 0.20 | 99 | 1008.0 | |
| 20260505181020 | 57 | 323 | 0.0 | 1.0 | 0.04 | 0.20 | 0.20 | 99 | 1008.0 |
| 20260505180525 | 57 | 329 | 0.0 | 1.0 | 0.04 | 0.20 | 0.20 | 99 | 1008.0 |
| 20260505180017 | 57 | 348 | 0.0 | 1.0 | 0.04 | 0.20 | 0.20 | 99 | 1008.0 |
| 20260505175552 | 58 | 323 | 0.0 | 0.0 | 0.05 | 0.20 | 0.20 | 99 | 1008.0 |
| 20260505175057 | 58 | 0.0 | 0.0 | 0.04 | 0.19 | 0.19 | 99 | 1008.0 | |
| 20260505174550 | 58 | 0.0 | 0.0 | 0.04 | 0.19 | 0.19 | 98 | 1008.0 | |
| 20260505174024 | 58 | 0.0 | 0.0 | 0.04 | 0.19 | 0.19 | 97 | 1008.0 | |
| 20260505173517 | 58 | 0.0 | 0.0 | 0.04 | 0.19 | 0.19 | 97 | 1008.0 | |
| 20260505173022 | 58 | 0.0 | 0.0 | 0.04 | 0.19 | 0.19 | 97 | 1008.0 | |
| 20260505172540 | 58 | 322 | 0.0 | 2.0 | 0.04 | 0.19 | 0.19 | 97 | 1008.0 |
| 20260505172033 | 58 | 0.0 | 0.0 | 0.04 | 0.19 | 0.19 | 96 | 1008.0 | |
| 20260505171555 | 59 | 0.0 | 0.0 | 0.03 | 0.18 | 0.18 | 96 | 1008.0 | |
| 20260505171048 | 59 | 0.0 | 0.0 | 0.01 | 0.16 | 0.16 | 96 | 1008.0 | |
| 20260505170522 | 59 | 0.0 | 0.0 | 0.01 | 0.16 | 0.16 | 95 | 1008.0 | |
| 20260505170015 | 59 | 0.0 | 0.0 | 0.01 | 0.16 | 0.16 | 95 | 1008.0 | |
| 20260505165550 | 59 | 0.0 | 0.0 | 0.00 | 0.15 | 0.15 | 95 | 1008.0 | |
| 20260505165025 | 59 | 0.0 | 0.0 | 0.00 | 0.15 | 0.15 | 94 | 1008.0 | |
| 20260505164518 | 59 | 0.0 | 0.0 | 0.00 | 0.15 | 0.15 | 94 | 1008.0 | |
| 20260505164023 | 59 | 0.0 | 0.0 | 0.00 | 0.15 | 0.15 | 94 | 1008.0 | |
| 20260505163515 | 59 | 0.0 | 0.0 | 0.00 | 0.15 | 0.15 | 94 | 1008.0 | |
| 20260505163020 | 59 | 0.0 | 0.0 | 0.00 | 0.15 | 0.15 | 93 | 1008.0 | |
| 20260505162525 | 59 | 0.0 | 0.0 | 0.00 | 0.15 | 0.15 | 93 | 1008.0 | |
| 20260505162018 | 59 | 0.0 | 0.0 | 0.00 | 0.15 | 0.15 | 93 | 1008.0 | |
| 20260505161553 | 59 | 0.0 | 0.0 | 0.00 | 0.15 | 0.15 | 93 | 1008.0 | |
| 20260505161017 | 59 | 8 | 0.0 | 0.0 | 0.00 | 0.15 | 0.15 | 92 | 1008.0 |
| 20260505160521 | 59 | 358 | 0.0 | 1.0 | 0.00 | 0.15 | 0.15 | 94 | 1008.0 |
| 20260505153020 | 59 | 0.0 | 0.0 | 0.00 | 0.15 | 0.15 | 95 | 1008.0 | |
| 20260505152525 | 59 | 0.0 | 0.0 | 0.01 | 0.15 | 0.15 | 95 | 1008.0 | |
| 20260505152017 | 59 | 0.0 | 0.0 | 0.02 | 0.15 | 0.15 | 95 | 1008.0 | |
| 20260505151522 | 59 | 0.0 | 0.0 | 0.05 | 0.15 | 0.15 | 95 | 1008.0 | |
| 20260505151028 | 59 | 0.0 | 0.0 | 0.07 | 0.15 | 0.15 | 95 | 1008.0 | |
| 20260505150521 | 59 | 0.0 | 0.0 | 0.09 | 0.15 | 0.15 | 95 | 1008.0 | |
| 20260505140518 | 59 | 0.0 | 0.0 | 0.03 | 0.06 | 0.06 | 95 | 1009.1 | |
| 20260505125019 | 60 | 319 | 0.0 | 0.0 | 0.02 | 0.03 | 0.03 | 92 | 1009.1 |
| 20260505124524 | 59 | 0.0 | 0.0 | 0.02 | 0.03 | 0.03 | 92 | 1009.1 | |
| 20260505124017 | 59 | 322 | 0.0 | 1.0 | 0.01 | 0.02 | 0.02 | 91 | 1009.1 |
| 20260505123552 | 59 | 319 | 0.0 | 1.0 | 0.01 | 0.02 | 0.02 | 92 | 1009.6 |
| 20260505123015 | 60 | 312 | 0.0 | 2.0 | 0.01 | 0.02 | 0.02 | 91 | 1010.1 |
| 20260505122550 | 60 | 320 | 0.0 | 0.0 | 0.01 | 0.02 | 0.02 | 91 | 1010.1 |
| 20260505122025 | 60 | 0.0 | 0.0 | 0.02 | 0.02 | 0.02 | 91 | 1009.6 | |
| 20260505121518 | 60 | 0.0 | 0.0 | 0.02 | 0.02 | 0.02 | 91 | 1009.1 | |
| 20260505121023 | 60 | 0.0 | 0.0 | 0.02 | 0.02 | 0.02 | 90 | 1009.1 | |
| 20260505120515 | 60 | 0.0 | 0.0 | 0.01 | 0.01 | 0.01 | 90 | 1009.1 | |
| 20260505120020 | 60 | 0.0 | 0.0 | 0.01 | 0.01 | 0.01 | 90 | 1009.1 | |
| 20260505115525 | 60 | 0.0 | 0.0 | 0.01 | 0.01 | 0.01 | 89 | 1009.1 | |
| 20260505115018 | 60 | 0.0 | 0.0 | 0.01 | 0.01 | 0.01 | 90 | 1009.0 | |
| 20260505114523 | 59 | 0.0 | 0.0 | 0.01 | 0.01 | 0.01 | 90 | 1009.0 | |
| 20260505114016 | 59 | 0.0 | 0.0 | 0.01 | 0.01 | 0.01 | 90 | 1009.0 | |
| 20260505113520 | 59 | 313 | 0.0 | 1.0 | 0.01 | 0.01 | 0.01 | 90 | 1009.3 |
| 20260505113025 | 59 | 316 | 0.0 | 0.0 | 0.01 | 0.01 | 0.01 | 90 | 1010.0 |
| 20260505112518 | 59 | 318 | 0.0 | 2.0 | 0.01 | 0.01 | 0.01 | 90 | 1010.0 |
| 20260505112023 | 59 | 308 | 0.0 | 2.0 | 0.00 | 0.00 | 0.00 | 90 | 1010.0 |
| 20260505111516 | 60 | 308 | 1.0 | 3.0 | 0.00 | 0.00 | 0.00 | 89 | 1010.0 |
| 20260505111051 | 60 | 299 | 1.0 | 3.0 | 0.00 | 0.00 | 0.00 | 88 | 1010.1 |
| 20260505110526 | 60 | 318 | 0.0 | 1.0 | 0.00 | 0.00 | 0.00 | 88 | 1010.1 |
| 20260505102045 | 59 | 312 | 1.0 | 2.0 | 0.00 | 0.00 | 0.00 | 87 | 1010.1 |
| 20260505101550 | 59 | 324 | 0.0 | 2.0 | 0.00 | 0.00 | 0.00 | 87 | 1010.1 |
| 20260505101055 | 59 | 360 | 1.0 | 2.0 | 0.00 | 0.00 | 0.00 | 87 | 1010.1 |
| 20260505100517 | 59 | 348 | 0.0 | 2.0 | 0.00 | 0.00 | 0.00 | 86 | 1010.1 |
| 20260505100022 | 59 | 353 | 0.0 | 1.0 | 0.00 | 0.00 | 0.00 | 86 | 1010.1 |
| 20260505095610 | 59 | 31 | 0.0 | 1.0 | 0.00 | 0.00 | 0.00 | 87 | 1010.1 |
| 20260505095033 | 59 | 315 | 0.0 | 1.0 | 0.00 | 0.00 | 0.00 | 87 | 1010.1 |
| 20260505094525 | 59 | 321 | 0.0 | 1.0 | 0.00 | 0.00 | 0.00 | 88 | 1010.1 |
| 20260505094048 | 58 | 5 | 0.0 | 1.0 | 0.00 | 0.00 | 0.00 | 88 | 1010.1 |
| 20260505093521 | 58 | 304 | 0.0 | 2.0 | 0.00 | 0.00 | 0.00 | 88 | 1010.1 |
| 20260505093028 | 58 | 319 | 0.0 | 1.0 | 0.00 | 0.00 | 0.00 | 88 | 1010.1 |
| 20260505092519 | 59 | 313 | 1.0 | 2.0 | 0.00 | 0.00 | 0.00 | 88 | 1010.1 |
| 20260505092024 | 58 | 297 | 0.0 | 2.0 | 0.00 | 0.00 | 0.00 | 87 | 1010.1 |
| 20260505091547 | 58 | 349 | 0.0 | 1.0 | 0.00 | 0.00 | 0.00 | 88 | 1010.1 |
| 20260505091022 | 58 | 322 | 0.0 | 1.0 | 0.00 | 0.00 | 0.00 | 89 | 1010.1 |
| 20260505090527 | 58 | 345 | 1.0 | 2.0 | 0.00 | 0.00 | 0.00 | 89 | 1010.1 |
| 20260505090020 | 58 | 318 | 1.0 | 6.0 | 0.00 | 0.00 | 0.00 | 89 | 1010.1 |
| 20260505085938 | 58 | 312 | 0.0 | 2.0 | 0.00 | 0.00 | 0.00 | 89 | 1010.1 |
| 20260505085058 | 58 | 302 | 1.0 | 2.0 | 0.00 | 0.00 | 0.00 | 88 | 1010.1 |
| 20260505084522 | 58 | 278 | 0.0 | 1.0 | 0.00 | 0.00 | 0.00 | 88 | 1010.1 |
| 20260505084140 | 58 | 313 | 1.0 | 2.0 | 0.00 | 0.00 | 0.00 | 88 | 1010.1 |
| 20260505083520 | 58 | 328 | 0.0 | 1.0 | 0.00 | 0.00 | 0.00 | 88 | 1010.1 |
| 20260505083133 | 58 | 305 | 1.0 | 2.0 | 0.00 | 0.00 | 0.00 | 88 | 1010.1 |
| 20260505082547 | 58 | 312 | 0.0 | 1.0 | 0.00 | 0.00 | 0.00 | 87 | 1010.1 |
| 20260505082052 | 58 | 7 | 0.0 | 2.0 | 0.00 | 0.00 | 0.00 | 87 | 1010.1 |
| 20260505081515 | 58 | 300 | 0.0 | 2.0 | 0.00 | 0.00 | 0.00 | 88 | 1010.1 |
| 20260505081020 | 58 | 0 | 0.0 | 1.0 | 0.00 | 0.00 | 0.00 | 89 | 1010.1 |
| 20260505080525 | 58 | 0.0 | 0.0 | 0.00 | 0.00 | 0.00 | 89 | 1010.1 | |
| 20260505080118 | 58 | 0.0 | 0.0 | 0.00 | 0.00 | 0.00 | 89 | 1010.1 | |
| 20260505075522 | 58 | 0.0 | 0.0 | 0.00 | 0.00 | 0.00 | 89 | 1010.1 | |
| 20260505075040 | 58 | 0.0 | 0.0 | 0.00 | 0.00 | 0.00 | 89 | 1010.1 | |
| 20260505074532 | 58 | 359 | 0.0 | 0.0 | 0.00 | 0.00 | 0.00 | 89 | 1010.7 |
| 20260505074237 | 58 | 0.0 | 0.0 | 0.00 | 0.00 | 0.00 | 90 | 1011.1 | |
| 20260505073021 | 58 | 0.0 | 0.0 | 0.00 | 0.00 | 0.00 | 90 | 1010.5 | |
| 20260505072555 | 58 | 0.0 | 0.0 | 0.00 | 0.00 | 0.00 | 90 | 1010.1 | |
| 20260505072018 | 58 | 0.0 | 0.0 | 0.00 | 0.00 | 0.00 | 91 | 1010.1 | |
| 20260505071605 | 58 | 0.0 | 0.0 | 0.00 | 0.00 | 0.00 | 92 | 1011.1 | |
| 20260505071015 | 58 | 0.0 | 0.0 | 0.00 | 0.00 | 0.00 | 92 | 1011.1 | |
| 20260505070519 | 57 | 0.0 | 0.0 | 0.00 | 0.00 | 0.00 | 93 | 1011.1 | |
| 20260505070024 | 57 | 0.0 | 0.0 | 0.00 | 0.00 | 0.00 | 93 | 1011.1 | |
| 20260505065516 | 57 | 0.0 | 0.0 | 0.00 | 0.00 | 0.00 | 93 | 1011.1 | |
| 20260505065021 | 56 | 0.0 | 0.0 | 0.00 | 0.00 | 0.00 | 94 | 1011.1 | |
| 20260505064525 | 56 | 0.0 | 0.0 | 0.00 | 0.00 | 0.00 | 94 | 1011.1 | |
| 20260505064048 | 56 | 0.0 | 0.0 | 0.00 | 0.00 | 0.00 | 95 | 1011.1 | |
| 20260505063610 | 56 | 0.0 | 0.0 | 0.00 | 0.00 | 0.00 | 96 | 1011.1 | |
| 20260505063015 | 56 | 0.0 | 0.0 | 0.00 | 0.00 | 0.00 | 96 | 1011.1 | |
| 20260505062628 | 55 | 0.0 | 0.0 | 0.00 | 0.00 | 0.00 | 97 | 1011.1 | |
| 20260505062024 | 55 | 0.0 | 0.0 | 0.00 | 0.00 | 0.00 | 97 | 1011.1 | |
| 20260505061835 | 55 | 0.0 | 0.0 | 0.00 | 0.00 | 0.00 | 97 | 1011.1 | |
| 20260505061021 | 55 | 0.0 | 0.0 | 0.00 | 0.00 | 0.00 | 97 | 1011.1 | |
| 20260505060526 | 55 | 0.0 | 0.0 | 0.00 | 0.00 | 0.00 | 97 | 1011.1 | |
| 20260505060048 | 55 | 0.0 | 0.0 | 0.00 | 0.00 | 0.00 | 97 | 1011.1 | |
| 20260505055523 | 55 | 0.0 | 0.0 | 0.00 | 0.00 | 0.00 | 97 | 1011.1 | |
| 20260505055422 | 55 | 0.0 | 0.0 | 0.00 | 0.00 | 0.00 | 98 | 1011.1 | |
| 20260505054520 | 55 | 0.0 | 0.0 | 0.00 | 0.00 | 0.00 | 98 | 1011.1 | |
| 20260505054024 | 55 | 0.0 | 0.0 | 0.00 | 0.00 | 0.00 | 98 | 1011.1 | |
| 20260505053845 | 54 | 0.0 | 0.0 | 0.00 | 0.00 | 0.00 | 98 | 1011.1 | |
| 20260505053021 | 54 | 0.0 | 0.0 | 0.00 | 0.00 | 0.00 | 98 | 1011.1 | |
| 20260505052556 | 54 | 0.0 | 0.0 | 0.00 | 0.00 | 0.00 | 99 | 1011.1 | |
| 20260505052150 | 54 | 0.0 | 0.0 | 0.00 | 0.00 | 0.00 | 99 | 1011.1 | |
| 20260505051523 | 54 | 0.0 | 0.0 | 0.00 | 0.00 | 0.00 | 99 | 1011.1 | |
| 20260505051027 | 54 | 0.0 | 0.0 | 0.00 | 0.00 | 0.00 | 99 | 1011.1 | |
| 20260505050759 | 54 | 0.0 | 0.0 | 0.00 | 0.00 | 0.00 | 99 | 1011.1 | |
| 20260505041515 | 53 | 0.0 | 0.0 | 0.00 | 0.00 | 0.00 | 99 | 1011.1 | |
| 20260505041020 | 53 | 0.0 | 0.0 | 0.00 | 0.00 | 0.00 | 99 | 1011.1 | |
| 20260505040524 | 53 | 0.0 | 0.0 | 0.00 | 0.00 | 0.00 | 99 | 1011.1 | |
| 20260505040047 | 53 | 0.0 | 0.0 | 0.00 | 0.00 | 0.00 | 99 | 1011.1 | |
| 20260505035522 | 53 | 0.0 | 0.0 | 0.00 | 0.00 | 0.00 | 99 | 1011.1 | |
| 20260505035027 | 53 | 0.0 | 0.0 | 0.00 | 0.00 | 0.00 | 99 | 1011.1 | |
| 20260505034518 | 54 | 0.0 | 0.0 | 0.00 | 0.00 | 0.00 | 99 | 1011.1 | |
| 20260505034432 | 54 | 0.0 | 0.0 | 0.00 | 0.00 | 0.00 | 98 | 1011.1 | |
| 20260505033515 | 54 | 0.0 | 0.0 | 0.00 | 0.00 | 0.00 | 99 | 1011.1 | |
| 20260505033432 | 53 | 0.0 | 0.0 | 0.00 | 0.00 | 0.00 | 98 | 1011.1 | |
| 20260505032524 | 53 | 0.0 | 0.0 | 0.00 | 0.00 | 0.00 | 98 | 1011.2 | |
| 20260505032117 | 53 | 0.0 | 0.0 | 0.00 | 0.00 | 0.00 | 98 | 1011.2 | |
| 20260505031522 | 53 | 0.0 | 0.0 | 0.00 | 0.00 | 0.00 | 98 | 1011.2 | |
| 20260505031026 | 53 | 0.0 | 0.0 | 0.00 | 0.00 | 0.00 | 98 | 1011.2 | |
| 20260505030519 | 53 | 0.0 | 0.0 | 0.00 | 0.00 | 0.00 | 98 | 1011.2 | |
| 20260505030024 | 53 | 0.0 | 0.0 | 0.00 | 0.00 | 0.00 | 98 | 1011.2 | |
| 20260505025516 | 53 | 0.0 | 0.0 | 0.00 | 0.00 | 0.00 | 98 | 1011.2 | |
| 20260505025021 | 53 | 0.0 | 0.0 | 0.00 | 0.00 | 0.00 | 98 | 1011.2 | |
| 20260505024526 | 53 | 0.0 | 0.0 | 0.00 | 0.00 | 0.00 | 98 | 1011.2 | |
| 20260505024018 | 54 | 0.0 | 0.0 | 0.00 | 0.00 | 0.00 | 98 | 1011.2 | |
| 20260505023523 | 54 | 0.0 | 0.0 | 0.00 | 0.00 | 0.00 | 98 | 1011.2 | |
| 20260505023145 | 53 | 0.0 | 0.0 | 0.00 | 0.00 | 0.00 | 98 | 1011.2 | |
| 20260505022520 | 53 | 0.0 | 0.0 | 0.00 | 0.00 | 0.00 | 98 | 1011.2 | |
| 20260505022025 | 53 | 0.0 | 0.0 | 0.00 | 0.00 | 0.00 | 98 | 1012.2 | |
| 20260505021518 | 53 | 0.0 | 0.0 | 0.00 | 0.00 | 0.00 | 98 | 1012.2 | |
| 20260505021022 | 53 | 0.0 | 0.0 | 0.00 | 0.00 | 0.00 | 98 | 1012.2 | |
| 20260505020527 | 53 | 0.0 | 0.0 | 0.00 | 0.00 | 0.00 | 98 | 1012.2 | |
| 20260505020049 | 53 | 0.0 | 0.0 | 0.00 | 0.00 | 0.00 | 98 | 1012.2 | |
| 20260505015820 | 53 | 0.0 | 0.0 | 0.00 | 0.00 | 0.00 | 98 | 1012.2 | |
| 20260505015046 | 53 | 0.0 | 0.0 | 0.00 | 0.00 | 0.00 | 98 | 1012.2 | |
| 20260505014925 | 53 | 0.0 | 0.0 | 0.00 | 0.00 | 0.00 | 98 | 1012.2 | |
| 20260505014026 | 53 | 0.0 | 0.0 | 0.00 | 0.00 | 0.00 | 98 | 1012.2 | |
| 20260505013549 | 53 | 0.0 | 0.0 | 0.00 | 0.00 | 0.00 | 98 | 1012.2 | |
| 20260505013023 | 53 | 0.0 | 0.0 | 0.00 | 0.00 | 0.00 | 98 | 1012.2 | |
| 20260505012516 | 53 | 0.0 | 0.0 | 0.00 | 0.00 | 0.00 | 98 | 1012.2 | |
| 20260505012020 | 53 | 0.0 | 0.0 | 0.00 | 0.00 | 0.00 | 98 | 1012.2 | |
| 20260505011525 | 53 | 0.0 | 0.0 | 0.00 | 0.00 | 0.00 | 98 | 1012.2 | |
| 20260505011048 | 53 | 0.0 | 0.0 | 0.00 | 0.00 | 0.00 | 97 | 1012.2 | |
| 20260505010858 | 53 | 0.0 | 0.0 | 0.00 | 0.00 | 0.00 | 97 | 1012.2 | |
| 20260505010045 | 53 | 0.0 | 0.0 | 0.00 | 0.00 | 0.00 | 97 | 1012.2 | |
| 20260505005519 | 53 | 0.0 | 0.0 | 0.00 | 0.00 | 0.00 | 97 | 1012.2 | |
| 20260505005024 | 53 | 0.0 | 0.0 | 0.00 | 0.00 | 0.00 | 97 | 1012.2 | |
| 20260505004517 | 53 | 0.0 | 0.0 | 0.00 | 0.00 | 0.00 | 98 | 1012.2 | |
| 20260505004021 | 53 | 0.0 | 0.0 | 0.00 | 0.00 | 0.00 | 97 | 1012.2 | |
| 20260505003526 | 53 | 0.0 | 0.0 | 0.00 | 0.00 | 0.00 | 98 | 1012.2 | |
| 20260505003415 | 53 | 0.0 | 0.0 | 0.00 | 0.00 | 0.00 | 98 | 1012.2 | |
| 20260505002523 | 53 | 0.0 | 0.0 | 0.00 | 0.00 | 0.00 | 98 | 1012.2 | |
| 20260505002452 | 53 | 0.0 | 0.0 | 0.00 | 0.00 | 0.00 | 97 | 1012.2 | |
| 20260505001522 | 53 | 0.0 | 0.0 | 0.00 | 0.00 | 0.00 | 98 | 1012.2 | |
| 20260505001026 | 53 | 0.0 | 0.0 | 0.00 | 0.00 | 0.00 | 98 | 1012.2 | |
| 20260505000518 | 53 | 0.0 | 0.0 | 0.00 | 0.00 | 0.00 | 97 | 1012.2 | |
| 20260505000023 | 53 | 0.0 | 0.0 | 0.00 | 0.00 | 0.00 | 98 | 1012.2 | |
| 20260504235516 | 53 | 0.0 | 0.0 | 0.00 | 0.00 | 0.00 | 98 | 1012.2 | |
| 20260504235020 | 53 | 0.0 | 0.0 | 0.00 | 0.00 | 0.00 | 97 | 1012.5 | |
| 20260504234525 | 52 | 0.0 | 0.0 | 0.00 | 0.00 | 0.00 | 98 | 1013.2 | |
| 20260504234048 | 52 | 0.0 | 0.0 | 0.00 | 0.00 | 0.00 | 97 | 1013.2 | |
| 20260504233552 | 52 | 0.0 | 0.0 | 0.00 | 0.00 | 0.00 | 97 | 1013.2 | |
| 20260504233045 | 52 | 0.0 | 0.0 | 0.00 | 0.00 | 0.00 | 97 | 1013.2 | |
| 20260504232550 | 52 | 0.0 | 0.0 | 0.00 | 0.00 | 0.00 | 98 | 1013.1 | |
| 20260504232055 | 52 | 0.0 | 0.0 | 0.00 | 0.00 | 0.00 | 98 | 1013.1 | |
| 20260504231517 | 52 | 0.0 | 0.0 | 0.00 | 0.00 | 0.00 | 98 | 1013.1 | |
| 20260504231022 | 52 | 0.0 | 0.0 | 0.00 | 0.00 | 0.00 | 97 | 1013.1 | |
| 20260504230527 | 52 | 0.0 | 0.0 | 0.00 | 0.00 | 0.00 | 97 | 1013.1 | |
| 20260504230019 | 52 | 0.0 | 0.0 | 0.00 | 0.00 | 0.00 | 96 | 1013.1 | |
| 20260504225524 | 52 | 0.0 | 0.0 | 0.00 | 0.00 | 0.00 | 97 | 1013.1 | |
| 20260504225017 | 52 | 0.0 | 0.0 | 0.00 | 0.00 | 0.00 | 97 | 1013.1 | |
| 20260504224519 | 52 | 0.0 | 0.0 | 0.00 | 0.00 | 0.00 | 97 | 1013.1 | |
| 20260504224024 | 52 | 0.0 | 0.0 | 0.00 | 0.00 | 0.00 | 96 | 1013.1 | |
| 20260504223617 | 53 | 0.0 | 0.0 | 0.00 | 0.00 | 0.00 | 96 | 1013.1 | |
| 20260504223022 | 53 | 0.0 | 0.0 | 0.00 | 0.00 | 0.00 | 96 | 1013.1 | |
| 20260504222526 | 53 | 0.0 | 0.0 | 0.00 | 0.00 | 0.00 | 96 | 1013.1 | |
| 20260504222019 | 53 | 0.0 | 0.0 | 0.00 | 0.00 | 0.00 | 95 | 1013.2 | |
| 20260504221524 | 53 | 0.0 | 0.0 | 0.00 | 0.00 | 0.00 | 95 | 1013.2 | |
| 20260504221017 | 54 | 0.0 | 0.0 | 0.00 | 0.00 | 0.00 | 94 | 1013.2 | |
| 20260504220551 | 54 | 0.0 | 0.0 | 0.00 | 0.00 | 0.00 | 93 | 1013.2 | |
| 20260504220056 | 54 | 0.0 | 0.0 | 0.00 | 0.00 | 0.00 | 94 | 1013.2 | |
| 20260504215619 | 55 | 0.0 | 0.0 | 0.00 | 0.00 | 0.00 | 94 | 1013.2 | |
| 20260504215024 | 55 | 0.0 | 0.0 | 0.00 | 0.00 | 0.00 | 93 | 1013.4 | |
| 20260504214516 | 55 | 0.0 | 0.0 | 0.00 | 0.00 | 0.00 | 93 | 1014.3 | |
| 20260504214021 | 55 | 0.0 | 0.0 | 0.00 | 0.00 | 0.00 | 93 | 1014.3 | |
| 20260504213526 | 55 | 0.0 | 0.0 | 0.00 | 0.00 | 0.00 | 92 | 1014.3 | |
| 20260504213147 | 55 | 0.0 | 0.0 | 0.00 | 0.00 | 0.00 | 92 | 1014.3 | |
| 20260504212553 | 55 | 0.0 | 0.0 | 0.00 | 0.00 | 0.00 | 92 | 1014.3 | |
| 20260504212223 | 55 | 0.0 | 0.0 | 0.00 | 0.00 | 0.00 | 92 | 1014.3 | |
| 20260504211520 | 55 | 0.0 | 0.0 | 0.00 | 0.00 | 0.00 | 93 | 1014.3 | |
| 20260504211025 | 56 | 0.0 | 0.0 | 0.00 | 0.00 | 0.00 | 93 | 1014.3 | |
| 20260504210518 | 56 | 0.0 | 0.0 | 0.00 | 0.00 | 0.00 | 92 | 1014.3 | |
| 20260504210023 | 56 | 0.0 | 0.0 | 0.00 | 0.00 | 0.00 | 92 | 1014.3 | |
| 20260504205515 | 56 | 0.0 | 0.0 | 0.00 | 0.00 | 0.00 | 92 | 1014.3 | |
| 20260504205020 | 56 | 0.0 | 0.0 | 0.00 | 0.00 | 0.00 | 92 | 1014.3 |